TimeCEST,TemperatureF,Dew PointF,Humidity,Sea Level PressureIn,VisibilityMPH,Wind Direction,Wind SpeedMPH,Gust SpeedMPH,PrecipitationIn,Events,Conditions,WindDirDegrees,DateUTC
12:45 AM,57.2,50.0,77,30.04,-9999.0,SE,6.9,-,N/A,,Clear,130,2013-04-22 22:45:00
1:45 AM,55.4,48.2,77,30.06,-9999.0,SE,6.9,-,N/A,,Clear,130,2013-04-22 23:45:00
2:00 AM,55,49,73,30.06,9,SE,6.7,,,,Partly Cloudy,130,2013-04-23 00:00:00
2:45 AM,55.4,48.2,77,30.06,-9999.0,SE,5.8,-,N/A,,Clear,130,2013-04-23 00:45:00
3:45 AM,53.6,48.2,82,30.06,-9999.0,SE,6.9,-,N/A,,Clear,140,2013-04-23 01:45:00
4:45 AM,53.6,48.2,82,30.06,-9999.0,SE,8.1,-,N/A,,Clear,140,2013-04-23 02:45:00
5:45 AM,53.6,48.2,82,30.09,6.2,SE,5.8,-,N/A,,Mostly Cloudy,130,2013-04-23 03:45:00
6:15 AM,53.6,48.2,82,30.09,-9999.0,SE,6.9,-,N/A,,Clear,130,2013-04-23 04:15:00
6:45 AM,53.6,50.0,88,30.09,-9999.0,South,4.6,-,N/A,,Clear,170,2013-04-23 04:45:00
7:15 AM,55.4,51.8,88,30.12,-9999.0,SSE,4.6,-,N/A,,Clear,160,2013-04-23 05:15:00
7:45 AM,59.0,53.6,82,30.12,-9999.0,SSW,8.1,-,N/A,,Clear,210,2013-04-23 05:45:00
8:00 AM,59,53,73,30.12,11,SSW,6.7,,,,Partly Cloudy,210,2013-04-23 06:00:00
8:15 AM,60.8,51.8,72,30.12,-9999.0,SW,8.1,-,N/A,,Clear,220,2013-04-23 06:15:00
8:45 AM,62.6,51.8,68,30.15,-9999.0,SW,8.1,-,N/A,,Clear,220,2013-04-23 06:45:00
9:15 AM,64.4,51.8,64,30.15,-9999.0,SW,8.1,-,N/A,,Clear,220,2013-04-23 07:15:00
9:45 AM,66.2,51.8,60,30.15,-9999.0,SSW,8.1,-,N/A,,Clear,200,2013-04-23 07:45:00
10:15 AM,66.2,50.0,56,30.15,6.2,SSW,9.2,-,N/A,,Mostly Cloudy,200,2013-04-23 08:15:00
10:45 AM,66.2,51.8,60,30.18,6.2,SSW,10.4,-,N/A,,Scattered Clouds,210,2013-04-23 08:45:00
11:15 AM,68.0,50.0,52,30.15,6.2,South,9.2,-,N/A,,Scattered Clouds,190,2013-04-23 09:15:00
11:45 AM,69.8,50.0,49,30.18,6.2,South,10.4,-,N/A,,Scattered Clouds,190,2013-04-23 09:45:00
12:15 PM,69.8,48.2,46,30.18,6.2,South,11.5,-,N/A,,Partly Cloudy,190,2013-04-23 10:15:00
12:45 PM,69.8,48.2,46,30.18,-9999.0,SW,11.5,-,N/A,,Clear,220,2013-04-23 10:45:00
1:15 PM,71.6,46.4,41,30.18,-9999.0,WSW,9.2,-,N/A,,Clear,240,2013-04-23 11:15:00
1:45 PM,71.6,46.4,41,30.18,-9999.0,SW,10.4,-,N/A,,Clear,220,2013-04-23 11:45:00
2:00 PM,71,47,31,30.16,31,SW,11.2,,,,Partly Cloudy,220,2013-04-23 12:00:00
2:15 PM,71.6,44.6,38,30.18,-9999.0,SW,11.5,-,N/A,,Clear,220,2013-04-23 12:15:00
2:45 PM,73.4,46.4,38,30.18,-9999.0,SW,8.1,-,N/A,,Clear,220,2013-04-23 12:45:00
3:15 PM,73.4,44.6,36,30.18,-9999.0,WSW,9.2,-,N/A,,Clear,240,2013-04-23 13:15:00
3:45 PM,73.4,41.0,31,30.15,-9999.0,SW,11.5,-,N/A,,Clear,230,2013-04-23 13:45:00
4:15 PM,73.4,39.2,29,30.15,-9999.0,WSW,10.4,-,N/A,,Clear,240,2013-04-23 14:15:00
4:45 PM,73.4,41.0,31,30.15,-9999.0,West,12.7,-,N/A,,Clear,270,2013-04-23 14:45:00
5:15 PM,73.4,41.0,31,30.15,-9999.0,West,12.7,-,N/A,,Clear,260,2013-04-23 15:15:00
5:45 PM,73.4,42.8,33,30.15,-9999.0,WSW,11.5,-,N/A,,Clear,250,2013-04-23 15:45:00
6:15 PM,73.4,41.0,31,30.15,-9999.0,WSW,9.2,-,N/A,,Clear,250,2013-04-23 16:15:00
6:45 PM,71.6,39.2,31,30.18,-9999.0,WSW,8.1,-,N/A,,Clear,240,2013-04-23 16:45:00
7:15 PM,69.8,41.0,35,30.18,-9999.0,SW,5.8,-,N/A,,Clear,230,2013-04-23 17:15:00
7:45 PM,66.2,41.0,40,30.18,-9999.0,SW,5.8,-,N/A,,Clear,230,2013-04-23 17:45:00
8:00 PM,66,41,29,30.18,25,SW,6.7,,,,Partly Cloudy,230,2013-04-23 18:00:00
8:15 PM,64.4,41.0,42,30.18,-9999.0,SW,5.8,-,N/A,,Clear,230,2013-04-23 18:15:00
8:45 PM,59.0,44.6,59,30.21,-9999.0,WSW,4.6,-,N/A,,Clear,250,2013-04-23 18:45:00
9:15 PM,60.8,42.8,52,30.21,-9999.0,WSW,5.8,-,N/A,,Clear,250,2013-04-23 19:15:00
9:45 PM,59.0,46.4,63,30.24,-9999.0,SW,5.8,-,N/A,,Clear,230,2013-04-23 19:45:00
10:45 PM,55.4,44.6,67,30.24,-9999.0,WSW,2.3,-,N/A,,Clear,240,2013-04-23 20:45:00
11:45 PM,53.6,46.4,77,30.27,-9999.0,SSW,3.5,-,N/A,,Clear,210,2013-04-23 21:45:00